This is the latest recevied weather packets stored in our database for station/object KQ4WWD. If no packets are shown the sender has not sent any weather packets the latest 10 day(s).
| Time | Temp. | Humidity | Pressure | Rain* | Wind** | Luminosity | Snow |
|---|---|---|---|---|---|---|---|
| 1777596942 | 25.56° C | 81% | 1010.4 hPa | 0 mm | - | 0 W/m² | - |
| 1777596639 | 25.56° C | 81% | 1010.2 hPa | 0 mm | - | 0 W/m² | - |
| 1777596335 | 25.56° C | 80% | 1010.4 hPa | 0 mm | - | 0 W/m² | - |
| 1777596034 | 26.11° C | 80% | 1010.4 hPa | 0 mm | - | 0 W/m² | - |
| 1777595733 | 25.56° C | 80% | 1010.5 hPa | 0 mm | - | 0 W/m² | - |
| 1777595429 | 26.11° C | 79% | 1010.5 hPa | 0 mm | - | 0 W/m² | - |
| 1777595126 | 26.11° C | 79% | 1010 hPa | 0 mm | - | 0 W/m² | - |
| 1777594822 | 26.11° C | 78% | 1010.1 hPa | 0 mm | - | 0 W/m² | - |
| 1777594518 | 26.11° C | 78% | 1010.1 hPa | 0 mm | - | 0 W/m² | - |
| 1777594215 | 26.11° C | 77% | 1009.9 hPa | 0 mm | - | 0 W/m² | - |
| 1777593910 | 26.11° C | 77% | 1009.9 hPa | 0 mm | - | 0 W/m² | - |
| 1777593607 | 26.67° C | 77% | 1010 hPa | 0 mm | - | 0 W/m² | - |
| 1777593303 | 26.67° C | 76% | 1009.9 hPa | 0 mm | - | 1 W/m² | - |
| 1777592997 | 26.67° C | 75% | 1009.6 hPa | 0 mm | - | 3 W/m² | - |
| 1777592691 | 26.67° C | 75% | 1009.6 hPa | 0 mm | - | 5 W/m² | - |
| 1777592387 | 26.67° C | 74% | 1009.8 hPa | 0 mm | - | 7 W/m² | - |
| 1777592083 | 27.22° C | 73% | 1009.7 hPa | 0 mm | - | 13 W/m² | - |
| 1777591781 | 27.22° C | 73% | 1009.7 hPa | 0 mm | - | 22 W/m² | - |
| 1777591476 | 27.22° C | 72% | 1009.5 hPa | 0 mm | - | 31 W/m² | - |
| 1777591172 | 27.22° C | 72% | 1009.6 hPa | 0 mm | - | 38 W/m² | - |
| 1777590867 | 27.22° C | 71% | 1009.5 hPa | 0 mm | - | 41 W/m² | - |
| 1777590564 | 27.22° C | 71% | 1009.2 hPa | 0 mm | - | 44 W/m² | - |
| 1777590260 | 27.78° C | 71% | 1009.2 hPa | 0 mm | - | 54 W/m² | - |
| 1777589958 | 27.78° C | 71% | 1009.2 hPa | 0 mm | - | 83 W/m² | - |
| 1777589654 | 27.78° C | 70% | 1009 hPa | 0 mm | - | 111 W/m² | - |
* Rain latest hour (hover to see other rain measurements)
** Current wind speed in m/s (hover to see current wind gust speed)